Location: Newark
(14.9306°N, 3.4333°E)
Time: 17:14:00
(UTC+00:00)

First-Move - Pass Details

Date: 17 December 2019
Orbit: 577 x 669 km, 97.6° (Epoch: 24 January)

Event Time Altitude Azimuth Distance (km) Brightness Sun altitude
Rises 05:23:03 0° 22° (NNE) 2,785 ? -10.1°
Reaches altitude 10° 05:25:17 10° 29° (NNE) 1,882 ? -9.6°
Maximum altitude 05:29:07 41° 100° (E) 842 ? -8.8°
Drops below altitude 10° 05:32:58 10° 171° (S) 1,885 ? -7.9°
Sets 05:35:13 0° 178° (S) 2,790 ? -7.4°
